Location: Taipo
(41.0000°S, 175.9500°E)
Time: 12:52:21
(UTC+00:00)

Tiangong - Visible Passes

Search period start: 21 January 2026 00:00
Search period end: 31 January 2026 00:00
Orbit: 378 x 393 km, 41.5° (Epoch: 20 January)

Date Brightness Start Highest point End Pass type
(mag) Time Alt. Az. Time Alt. Az. Time Alt. Az.
21 Jan -1.4 09:25:45 10° W 09:28:46 38° NNW 09:29:07 36° N visible
22 Jan -1.9 08:26:10 10° W 08:29:20 57° NNW 08:32:12 12° ENE visible
22 Jan 0.6 10:03:54 10° WNW 10:04:25 12° WNW 10:04:25 12° WNW visible
23 Jan -0.5 09:03:44 10° W 09:06:22 24° NNW 09:07:28 20° N visible
25 Jan 0.3 08:41:47 10° WNW 08:43:37 14° NNW 08:45:27 10° N visible
